Lid_Strength_Index
10 10 9 8 8 9 9 9 9 9 10 11 12 12 12 10 11 10 9 8 7 7 6 0 1 1 2 2 3 4 6 8 8 8 8 9 8 8 7 6 6 4 4
11 11 10 10 9 9 9 9 9 9 9 10 11 12 12 11 12 11 11 10 9 8 6 1 1 2 2 3 4 6 8 9 6 6 7 9 9 9 9 7 7 5 5
12 11 11 11 10 10 9 9 9 9 9 10 10 11 12 11 10 11 11 9 8 7 6 3 1 2 2 3 5 7 8 8 6 4 7 8 9 11 10 10 7 6 5
12 12 12 12 11 11 10 9 9 9 9 9 11 12 13 14 12 11 10 9 8 8 7 6 1 2 1 3 5 7 6 6 7 5 5 6 7 9 11 10 8 7 6
13 13 12 12 11 11 11 10 10 9 9 9 10 12 13 13 12 11 11 10 9 8 7 6 2 2 2 4 5 6 6 5 6 5 6 6 5 8 9 11 10 8 7
13 13 12 12 12 12 11 11 11 11 10 10 10 12 13 13 13 12 12 11 9 8 6 6 3 2 3 5 6 6 5 5 5 6 7 6 6 8 8 10 9 9 9
14 14 14 14 13 13 13 12 12 12 11 10 10 11 12 12 13 12 12 11 10 8 7 4 2 3 4 5 5 5 5 5 5 7 5 5 5 6 7 9 10 11 10
15 15 14 14 14 13 13 13 13 13 12 11 11 11 11 11 12 12 12 12 10 7 5 4 3 3 4 4 4 4 4 4 6 7 6 6 6 6 8 8 9 12 12
15 15 15 15 14 14 14 14 13 13 12 11 11 11 11 11 12 12 11 11 10 7 6 5 3 4 4 4 4 5 5 4 7 7 7 7 8 8 6 7 8 9 14
15 15 15 15 14 14 14 13 13 13 12 11 11 11 11 11 12 12 12 10 10 8 6 6 3 4 4 4 4 4 5 5 7 7 8 8 8 10 6 6 8 10 12
16 16 15 15 14 14 14 14 13 13 12 11 11 11 11 12 11 12 11 11 10 9 7 6 4 4 4 4 4 5 5 5 7 7 9 9 9 9 8 7 9 10 11
17 16 16 15 15 14 13 15 14 13 13 11 11 11 11 11 12 12 11 11 10 9 7 6 4 4 4 4 4 5 5 5 7 8 9 10 9 10 9 9 10 10 12
17 17 16 16 15 15 14 14 14 14 13 12 11 11 11 11 12 12 11 10 10 9 7 6 3 4 4 4 4 5 5 6 7 8 9 9 9 10 10 10 10 10 11
18 18 17 16 14 14 13 13 14 14 13 12 11 11 12 12 12 11 10 10 10 9 7 6 3 4 4 4 4 5 5 6 7 7 8 9 9 9 9 9 10 11 12
19 18 18 17 14 13 12 12 13 13 13 13 12 11 11 11 11 11 10 10 9 9 7 6 6 4 4 4 4 5 5 7 8 7 8 8 8 8 8 9 10 11 12
19 18 17 16 15 14 12 12 12 12 12 12 11 11 10 10 11 11 10 9 8 9 7 6 5 4 4 6 6 6 5 7 8 8 8 8 9 8 7 7 8 9 11
20 18 17 16 14 13 12 12 12 11 11 12 10 10 10 10 11 10 10 10 9 8 7 6 4 4 4 7 7 7 5 7 7 8 8 9 8 8 8 7 8 8 8
20 18 17 16 15 12 12 11 11 11 11 11 10 9 9 10 10 10 11 9 8 8 7 5 4 4 5 7 7 7 5 7 7 7 8 8 9 8 9 9 10 10 10
19 19 17 15 14 12 11 10 10 10 10 10 10 9 9 9 10 11 11 8 8 7 6 4 5 5 6 7 8 7 5 6 8 7 8 8 9 8 8 10 11 12 12
19 19 17 16 14 12 10 7 8 10 10 10 9 8 8 8 10 10 10 8 7 7 5 5 4 5 6 8 8 7 5 7 8 8 8 8 9 8 8 10 11 13 14
19 18 17 17 14 11 10 6 7 9 9 8 7 7 7 8 9 10 9 6 6 6 5 5 4 5 7 7 7 7 7 7 8 8 9 9 8 8 8 9 11 12 13
20 19 18 17 14 11 10 9 7 6 7 7 7 6 6 8 9 10 8 6 6 6 5 6 6 6 7 8 8 8 7 7 8 8 8 8 9 9 9 9 9 11 12
20 19 19 18 14 12 11 11 9 6 6 6 6 7 7 9 8 8 8 6 6 5 6 7 6 8 8 8 8 8 8 9 8 7 8 8 9 9 9 9 10 11 13
21 20 20 18 16 12 12 11 9 8 7 7 7 6 8 8 7 6 6 4 5 6 7 7 7 9 9 9 8 7 8 9 10 10 9 9 10 10 10 11 11 12 13
21 20 20 18 17 15 14 12 10 8 8 8 9 9 8 6 7 6 5 5 5 6 7 7 8 9 10 9 8 8 10 10 10 10 11 11 11 12 12 12 14 13 13
21 21 20 19 17 17 15 16 15 13 10 9 11 10 8 7 7 7 8 8 7 8 9 9 8 9 9 9 9 10 11 11 11 12 13 13 13 13 13 14 15 14 15